Погода в Полтакове

Россия / Республика Хакасия     52°57′14″N   90°11′14″E
темп.,
°C
ветер,
м/с
пор.,
м/с
влажн.,
%
обл.,
%
осадки,
мм/ч
давл.,
гПа
погр.,
м
25 января, пн
пн2501:00−17юз51380100 0.0 1039552
04:00−20зюз91674100 0.0 1040682
07:00−23зюз81676100 0.0 1044698
10:00−25зюз7157772 0.0 1045571
13:00−23зюз8127662 0.0 1045811
16:00−23зюз5107944 0.0 1044516
19:00−26зюз228273 0.0 104420
22:00−28з1285100 0.0 104319
26 января, вт
вт2601:00−27зюз1287100 0.0 104219
04:00−25з1293100 0.0 104019
07:00−25з1195100 0.1 104019
10:00−24зсз1193100 0.0 104020
13:00−21св1193100 0.0 1038140
16:00−21св1294100 0.0 103894
19:00−28всв229994 0.0 104119
22:00−29св1110090 0.0 104219
27 января, ср
ср2701:00−27в0110095 0.0 104220
04:00−25св1199100 0.0 104220
07:00−22всв11100100 0.1 104033
10:00−20св11100100 0.6 103837
13:00−15юз1394100 0.9 1034176
16:00−7юз51389100 0.1 1031851
19:00−7юз51587100 0.3 1030890
22:00−5зюз101979100 0.0 10291081
28 января, чт
чт2801:00−5зюз81879100 0.1 10291080
04:00−6зюз81681100 0.0 1030887
07:00−6зюз71581100 0.1 1031762
10:00−6юз71585100 0.0 1031889
13:00−4зюз71481100 0.0 10301148
16:00−4юз61482100 0.0 10281077
19:00−5юз61682100 0.0 1028728
22:00−6ююз51686100 0.0 1026752
29 января, пт
пт2901:00−5юз51587100 0.0 1024792
04:00−4юз81787100 0.1 10221107
07:00−3юз71889100 0.4 10201361
10:00−3юз71985100 0.3 10201415
13:00−2зюз71880100 0.5 10191620
16:00−4зюз51582100 0.0 10191528
19:00−7юз51382100 0.0 1021526
22:00−8юз61683100 0.0 1020745